Time,TemperatureF,DewpointF,PressureIn,WindDirection,WindDirectionDegrees,WindSpeedMPH,WindSpeedGustMPH,Humidity,HourlyPrecipIn,Conditions,Clouds,dailyrainin,SoftwareType,DateUTC
2013-06-29 00:01:00,70.3,61.7,29.93,North,359,0.0,0.0,73,0.00,,,-99.99,Meteorologica,2013-06-29 05:01:00,
2013-06-29 00:06:00,70.2,61.7,29.93,North,359,0.0,0.0,74,0.00,,,-99.99,Meteorologica,2013-06-29 05:06:00,
2013-06-29 00:11:00,70.1,61.7,29.93,North,359,0.0,0.0,74,0.00,,,-99.99,Meteorologica,2013-06-29 05:11:00,
2013-06-29 00:16:00,69.9,61.6,29.93,North,359,0.0,0.0,74,0.00,,,-99.99,Meteorologica,2013-06-29 05:16:00,
2013-06-29 00:21:00,69.8,61.7,29.93,North,359,0.0,0.0,75,0.00,,,-99.99,Meteorologica,2013-06-29 05:21:00,
2013-06-29 00:26:00,69.6,61.6,29.93,North,359,0.0,0.0,75,0.00,,,-99.99,Meteorologica,2013-06-29 05:26:00,
2013-06-29 00:31:00,69.5,61.6,29.93,North,359,0.0,0.0,75,0.00,,,-99.99,Meteorologica,2013-06-29 05:31:00,
2013-06-29 00:36:00,69.5,61.8,29.93,North,359,0.0,0.0,76,0.00,,,-99.99,Meteorologica,2013-06-29 05:36:00,
2013-06-29 00:41:00,69.4,61.7,29.93,North,359,0.0,0.0,76,0.00,,,-99.99,Meteorologica,2013-06-29 05:41:00,
2013-06-29 00:46:00,69.3,61.8,29.93,North,359,0.0,0.0,76,0.00,,,-99.99,Meteorologica,2013-06-29 05:46:00,
2013-06-29 00:51:00,69.2,61.8,29.93,North,359,0.0,0.0,76,0.00,,,-99.99,Meteorologica,2013-06-29 05:51:00,
2013-06-29 00:56:00,69.0,61.8,29.93,North,359,0.0,0.0,77,0.00,,,-99.99,Meteorologica,2013-06-29 05:56:00,
2013-06-29 01:01:00,68.8,61.8,29.93,North,359,0.0,0.0,78,0.00,,,-99.99,Meteorologica,2013-06-29 06:01:00,
2013-06-29 01:06:00,68.6,61.7,29.93,North,359,0.0,0.0,78,0.00,,,-99.99,Meteorologica,2013-06-29 06:06:00,
2013-06-29 01:11:00,68.4,61.6,29.93,North,359,0.0,0.0,78,0.00,,,-99.99,Meteorologica,2013-06-29 06:11:00,
2013-06-29 01:16:00,68.3,61.7,29.93,North,359,0.0,0.0,79,0.00,,,-99.99,Meteorologica,2013-06-29 06:16:00,
2013-06-29 01:21:00,68.2,61.9,29.93,North,359,0.0,0.0,80,0.00,,,-99.99,Meteorologica,2013-06-29 06:21:00,
2013-06-29 01:26:00,68.0,61.8,29.93,North,359,0.0,0.0,80,0.00,,,-99.99,Meteorologica,2013-06-29 06:26:00,
2013-06-29 01:31:00,67.7,61.7,29.93,North,359,0.0,0.0,80,0.00,,,-99.99,Meteorologica,2013-06-29 06:31:00,
2013-06-29 01:36:00,67.5,61.6,29.93,North,359,0.0,0.0,81,0.00,,,-99.99,Meteorologica,2013-06-29 06:36:00,
2013-06-29 01:41:00,67.3,61.5,29.93,North,359,0.0,0.0,81,0.00,,,-99.99,Meteorologica,2013-06-29 06:41:00,
2013-06-29 01:46:00,67.1,61.3,29.93,North,359,0.0,0.0,81,0.00,,,-99.99,Meteorologica,2013-06-29 06:46:00,
2013-06-29 01:51:00,67.0,61.3,29.94,North,359,0.0,0.0,81,0.00,,,-99.99,Meteorologica,2013-06-29 06:51:00,
2013-06-29 01:56:00,67.0,61.4,29.94,North,359,0.0,0.0,82,0.00,,,-99.99,Meteorologica,2013-06-29 06:56:00,
2013-06-29 02:01:00,66.8,61.2,29.94,North,359,0.0,0.0,82,0.00,,,-99.99,Meteorologica,2013-06-29 07:01:00,
2013-06-29 02:06:00,66.7,61.2,29.94,North,359,0.0,0.0,82,0.00,,,-99.99,Meteorologica,2013-06-29 07:06:00,
2013-06-29 02:11:00,66.7,61.2,29.94,North,359,0.0,0.0,82,0.00,,,-99.99,Meteorologica,2013-06-29 07:11:00,
2013-06-29 02:16:00,66.6,61.1,29.94,North,359,0.0,0.0,82,0.00,,,-99.99,Meteorologica,2013-06-29 07:16:00,
2013-06-29 02:21:00,66.4,60.9,29.94,North,359,0.0,0.0,82,0.00,,,-99.99,Meteorologica,2013-06-29 07:21:00,
2013-06-29 02:26:00,66.4,60.8,29.93,North,359,0.0,0.0,82,0.00,,,-99.99,Meteorologica,2013-06-29 07:26:00,
2013-06-29 02:31:00,66.4,60.8,29.93,North,359,0.0,0.0,82,0.00,,,-99.99,Meteorologica,2013-06-29 07:31:00,
2013-06-29 02:36:00,66.4,60.8,29.93,North,359,0.0,0.0,82,0.00,,,-99.99,Meteorologica,2013-06-29 07:36:00,
2013-06-29 02:41:00,66.5,60.9,29.93,North,359,0.0,0.0,81,0.00,,,-99.99,Meteorologica,2013-06-29 07:41:00,
2013-06-29 02:46:00,66.7,61.0,29.93,North,359,0.0,0.0,81,0.00,,,-99.99,Meteorologica,2013-06-29 07:46:00,
2013-06-29 02:51:00,66.7,60.9,29.94,North,359,0.0,0.0,81,0.00,,,-99.99,Meteorologica,2013-06-29 07:51:00,
2013-06-29 02:56:00,66.4,60.6,29.94,North,359,0.0,0.0,81,0.00,,,-99.99,Meteorologica,2013-06-29 07:56:00,
2013-06-29 03:01:00,66.3,60.6,29.93,North,359,0.0,0.0,81,0.00,,,-99.99,Meteorologica,2013-06-29 08:01:00,
2013-06-29 03:06:00,66.2,60.5,29.93,North,359,0.0,0.0,81,0.00,,,-99.99,Meteorologica,2013-06-29 08:06:00,
2013-06-29 03:11:00,66.2,60.6,29.93,NNW,348,0.0,0.0,81,0.00,,,-99.99,Meteorologica,2013-06-29 08:11:00,
2013-06-29 03:16:00,66.2,60.6,29.93,NNW,348,0.0,0.0,82,0.00,,,-99.99,Meteorologica,2013-06-29 08:16:00,
2013-06-29 03:21:00,66.3,60.5,29.93,NNW,348,0.0,0.0,81,0.00,,,-99.99,Meteorologica,2013-06-29 08:21:00,
2013-06-29 03:26:00,66.3,60.5,29.93,NNW,348,0.0,0.0,81,0.00,,,-99.99,Meteorologica,2013-06-29 08:26:00,
2013-06-29 03:31:00,66.5,60.4,29.93,NNW,348,0.0,0.0,80,0.00,,,-99.99,Meteorologica,2013-06-29 08:31:00,
2013-06-29 03:36:00,66.5,60.1,29.93,NNW,348,0.0,0.0,79,0.00,,,-99.99,Meteorologica,2013-06-29 08:36:00,
2013-06-29 03:41:00,66.8,60.3,29.93,NNW,348,0.0,0.0,79,0.00,,,-99.99,Meteorologica,2013-06-29 08:41:00,
2013-06-29 03:46:00,66.9,60.2,29.93,NNW,348,0.0,0.0,78,0.00,,,-99.99,Meteorologica,2013-06-29 08:46:00,
2013-06-29 03:51:00,67.0,60.2,29.93,NNW,348,0.0,0.0,78,0.00,,,-99.99,Meteorologica,2013-06-29 08:51:00,
2013-06-29 03:56:00,67.0,60.1,29.93,NNW,348,0.0,0.0,78,0.00,,,-99.99,Meteorologica,2013-06-29 08:56:00,
2013-06-29 04:01:00,67.0,60.0,29.93,NNW,348,0.0,0.0,78,0.00,,,-99.99,Meteorologica,2013-06-29 09:01:00,
2013-06-29 04:06:00,67.0,60.1,29.93,NNW,348,0.0,0.0,78,0.00,,,-99.99,Meteorologica,2013-06-29 09:06:00,
2013-06-29 04:11:00,67.0,60.0,29.93,NNW,348,0.0,0.0,78,0.00,,,-99.99,Meteorologica,2013-06-29 09:11:00,
2013-06-29 04:17:00,67.0,60.0,29.93,NNW,348,0.0,0.0,77,0.00,,,-99.99,Meteorologica,2013-06-29 09:17:00,
2013-06-29 04:22:00,67.0,60.0,29.93,NNW,348,0.0,0.0,77,0.00,,,-99.99,Meteorologica,2013-06-29 09:22:00,
2013-06-29 04:27:00,66.9,59.8,29.93,NNW,348,0.0,0.0,77,0.00,,,-99.99,Meteorologica,2013-06-29 09:27:00,
2013-06-29 04:32:00,66.9,59.9,29.93,NNW,348,0.0,0.0,77,0.00,,,-99.99,Meteorologica,2013-06-29 09:32:00,
2013-06-29 04:37:00,66.8,59.8,29.93,NNW,348,0.0,0.0,78,0.00,,,-99.99,Meteorologica,2013-06-29 09:37:00,
2013-06-29 04:42:00,66.6,59.7,29.93,NNW,348,0.0,0.0,78,0.00,,,-99.99,Meteorologica,2013-06-29 09:42:00,
2013-06-29 04:47:00,66.5,59.7,29.93,NNW,348,0.0,0.0,78,0.00,,,-99.99,Meteorologica,2013-06-29 09:47:00,
2013-06-29 04:52:00,66.4,59.7,29.93,NNW,348,0.0,0.0,78,0.00,,,-99.99,Meteorologica,2013-06-29 09:52:00,
2013-06-29 04:57:00,66.2,59.5,29.93,NNW,348,0.0,0.0,78,0.00,,,-99.99,Meteorologica,2013-06-29 09:57:00,
2013-06-29 05:02:00,66.1,59.6,29.93,NNW,348,0.0,0.0,79,0.00,,,-99.99,Meteorologica,2013-06-29 10:02:00,
2013-06-29 05:07:00,65.9,59.4,29.93,NNW,348,0.0,0.0,79,0.00,,,-99.99,Meteorologica,2013-06-29 10:07:00,
2013-06-29 05:12:00,65.8,59.4,29.93,NNW,348,0.0,0.0,79,0.00,,,-99.99,Meteorologica,2013-06-29 10:12:00,
2013-06-29 05:17:00,65.7,59.4,29.94,NNW,348,0.0,0.0,79,0.00,,,-99.99,Meteorologica,2013-06-29 10:17:00,
2013-06-29 05:22:00,65.5,59.2,29.94,NNW,348,0.0,0.0,79,0.00,,,-99.99,Meteorologica,2013-06-29 10:22:00,
2013-06-29 05:27:00,65.4,59.2,29.94,NNW,348,0.0,0.0,80,0.00,,,-99.99,Meteorologica,2013-06-29 10:27:00,
2013-06-29 05:32:00,65.3,59.1,29.94,NNW,348,0.4,3.0,80,0.00,,,-99.99,Meteorologica,2013-06-29 10:32:00,
2013-06-29 05:37:00,65.3,59.1,29.94,NNW,348,0.0,0.0,80,0.00,,,-99.99,Meteorologica,2013-06-29 10:37:00,
2013-06-29 05:42:00,65.3,59.1,29.94,NNW,348,0.0,0.0,80,0.00,,,-99.99,Meteorologica,2013-06-29 10:42:00,
2013-06-29 05:47:00,65.4,59.2,29.94,NNE,32,0.7,2.7,80,0.00,,,-99.99,Meteorologica,2013-06-29 10:47:00,
2013-06-29 05:52:00,65.4,59.1,29.94,NNE,32,0.0,0.0,79,0.00,,,-99.99,Meteorologica,2013-06-29 10:52:00,
2013-06-29 05:57:00,65.4,59.1,29.94,NNE,32,0.0,0.0,79,0.00,,,-99.99,Meteorologica,2013-06-29 10:57:00,
2013-06-29 06:02:00,65.3,59.0,29.94,NNE,32,0.0,0.0,80,0.00,,,-99.99,Meteorologica,2013-06-29 11:02:00,
2013-06-29 06:07:00,65.1,59.0,29.94,NNE,32,0.0,0.0,80,0.00,,,-99.99,Meteorologica,2013-06-29 11:07:00,
2013-06-29 06:12:00,65.0,59.0,29.94,NNE,32,0.0,0.0,80,0.00,,,-99.99,Meteorologica,2013-06-29 11:12:00,
2013-06-29 06:17:00,64.8,59.0,29.94,NNE,32,0.0,0.0,81,0.00,,,-99.99,Meteorologica,2013-06-29 11:17:00,
2013-06-29 06:22:00,64.9,59.2,29.94,NNE,32,0.0,0.0,81,0.00,,,-99.99,Meteorologica,2013-06-29 11:22:00,
2013-06-29 06:27:00,64.8,59.0,29.94,NNE,32,0.0,0.0,81,0.00,,,-99.99,Meteorologica,2013-06-29 11:27:00,
2013-06-29 06:32:00,64.7,58.9,29.94,North,359,0.0,0.0,81,0.00,,,-99.99,Meteorologica,2013-06-29 11:32:00,
2013-06-29 06:37:00,64.8,59.0,29.94,North,359,0.0,0.0,81,0.00,,,-99.99,Meteorologica,2013-06-29 11:37:00,
2013-06-29 06:42:00,64.9,59.2,29.94,North,359,0.0,0.0,81,0.00,,,-99.99,Meteorologica,2013-06-29 11:42:00,
2013-06-29 06:47:00,65.0,59.3,29.93,North,359,0.0,0.0,81,0.00,,,-99.99,Meteorologica,2013-06-29 11:47:00,
2013-06-29 06:52:00,65.2,59.3,29.93,North,359,0.0,0.0,81,0.00,,,-99.99,Meteorologica,2013-06-29 11:52:00,
2013-06-29 06:57:00,65.4,59.5,29.93,North,359,0.0,0.0,81,0.00,,,-99.99,Meteorologica,2013-06-29 11:57:00,
2013-06-29 07:02:00,65.4,59.4,29.93,North,359,0.0,0.0,80,0.00,,,-99.99,Meteorologica,2013-06-29 12:02:00,
2013-06-29 07:07:00,65.6,59.6,29.94,North,359,0.0,0.0,80,0.00,,,-99.99,Meteorologica,2013-06-29 12:07:00,
2013-06-29 07:12:00,65.9,59.7,29.94,NNE,19,0.0,5.6,80,0.00,,,-99.99,Meteorologica,2013-06-29 12:12:00,
2013-06-29 07:17:00,66.7,60.2,29.93,NNE,19,0.0,1.5,79,0.00,,,-99.99,Meteorologica,2013-06-29 12:17:00,
2013-06-29 07:22:00,66.6,60.0,29.94,NNE,19,0.0,0.0,79,0.00,,,-99.99,Meteorologica,2013-06-29 12:22:00,
2013-06-29 07:27:00,67.0,60.1,29.94,North,357,0.0,5.1,78,0.00,,,-99.99,Meteorologica,2013-06-29 12:27:00,
2013-06-29 07:32:00,67.4,60.4,29.94,ENE,69,2.2,4.7,77,0.00,,,-99.99,Meteorologica,2013-06-29 12:32:00,
2013-06-29 07:37:00,67.8,60.5,29.94,ENE,69,0.0,0.0,77,0.00,,,-99.99,Meteorologica,2013-06-29 12:37:00,
2013-06-29 07:42:00,68.2,60.8,29.94,ENE,69,0.0,1.2,76,0.00,,,-99.99,Meteorologica,2013-06-29 12:42:00,
2013-06-29 07:47:00,68.5,60.6,29.94,NNW,331,0.0,3.2,75,0.00,,,-99.99,Meteorologica,2013-06-29 12:47:00,
2013-06-29 07:52:00,68.7,60.4,29.94,North,4,1.4,4.5,74,0.00,,,-99.99,Meteorologica,2013-06-29 12:52:00,
2013-06-29 07:57:00,69.0,60.5,29.95,North,9,0.5,2.9,74,0.00,,,-99.99,Meteorologica,2013-06-29 12:57:00,
2013-06-29 08:02:00,69.4,61.0,29.94,West,280,0.6,3.2,74,0.00,,,-99.99,Meteorologica,2013-06-29 13:02:00,
2013-06-29 08:07:00,69.9,60.9,29.94,ENE,67,0.0,0.0,72,0.00,,,-99.99,Meteorologica,2013-06-29 13:07:00,
2013-06-29 08:12:00,70.5,61.0,29.94,NNE,14,1.3,4.3,71,0.00,,,-99.99,Meteorologica,2013-06-29 13:12:00,
2013-06-29 08:17:00,71.0,61.5,29.94,NNE,28,0.0,3.3,71,0.00,,,-99.99,Meteorologica,2013-06-29 13:17:00,
2013-06-29 08:22:00,71.4,61.5,29.94,NNE,28,0.3,6.0,70,0.00,,,-99.99,Meteorologica,2013-06-29 13:22:00,
2013-06-29 08:27:00,71.7,61.3,29.94,WSW,258,0.0,4.3,69,0.00,,,-99.99,Meteorologica,2013-06-29 13:27:00,
2013-06-29 08:32:00,72.0,61.4,29.94,North,359,0.0,4.6,68,0.00,,,-99.99,Meteorologica,2013-06-29 13:32:00,
2013-06-29 08:37:00,72.5,61.5,29.94,West,272,0.0,5.1,67,0.00,,,-99.99,Meteorologica,2013-06-29 13:37:00,
2013-06-29 08:42:00,72.9,61.5,29.94,NW,306,0.3,8.4,67,0.00,,,-99.99,Meteorologica,2013-06-29 13:42:00,
2013-06-29 08:47:00,73.2,60.9,29.94,NNE,14,3.4,8.1,64,0.00,,,-99.99,Meteorologica,2013-06-29 13:47:00,
2013-06-29 08:52:00,73.5,62.1,29.94,East,86,0.0,5.2,66,0.00,,,-99.99,Meteorologica,2013-06-29 13:52:00,
2013-06-29 08:57:00,73.7,61.6,29.94,NW,307,0.0,4.5,65,0.00,,,-99.99,Meteorologica,2013-06-29 13:57:00,
2013-06-29 09:02:00,74.0,61.4,29.94,West,266,3.1,6.0,64,0.00,,,-99.99,Meteorologica,2013-06-29 14:02:00,
2013-06-29 09:07:00,74.5,62.0,29.94,North,8,0.0,3.0,64,0.00,,,-99.99,Meteorologica,2013-06-29 14:07:00,
2013-06-29 09:12:00,74.8,61.3,29.95,West,273,0.9,6.8,62,0.00,,,-99.99,Meteorologica,2013-06-29 14:12:00,
2013-06-29 09:17:00,75.2,62.0,29.95,ENE,74,0.0,3.3,63,0.00,,,-99.99,Meteorologica,2013-06-29 14:17:00,
2013-06-29 09:22:00,75.6,61.7,29.95,WNW,299,0.0,4.5,61,0.00,,,-99.99,Meteorologica,2013-06-29 14:22:00,
2013-06-29 09:27:00,76.2,62.4,29.95,NNW,333,0.0,4.6,61,0.00,,,-99.99,Meteorologica,2013-06-29 14:27:00,
2013-06-29 09:33:00,76.6,61.7,29.95,NNW,338,0.0,7.1,59,0.00,,,-99.99,Meteorologica,2013-06-29 14:33:00,
2013-06-29 09:38:00,76.9,60.2,29.95,NE,40,3.4,9.9,57,0.00,,,-99.99,Meteorologica,2013-06-29 14:38:00,
2013-06-29 09:43:00,76.9,61.3,29.94,North,0,0.4,6.8,58,0.00,,,-99.99,Meteorologica,2013-06-29 14:43:00,
2013-06-29 09:48:00,77.3,61.8,29.94,NW,326,3.9,6.9,58,0.00,,,-99.99,Meteorologica,2013-06-29 14:48:00,
2013-06-29 09:53:00,77.7,60.9,29.94,West,271,0.4,6.0,56,0.00,,,-99.99,Meteorologica,2013-06-29 14:53:00,
2013-06-29 09:58:00,78.3,61.4,29.94,NNW,330,1.3,6.7,55,0.00,,,-99.99,Meteorologica,2013-06-29 14:58:00,
2013-06-29 10:03:00,78.7,60.6,29.95,SE,129,3.0,6.3,53,0.00,,,-99.99,Meteorologica,2013-06-29 15:03:00,
2013-06-29 10:08:00,78.7,60.2,29.94,NW,323,3.8,10.5,52,0.00,,,-99.99,Meteorologica,2013-06-29 15:08:00,
2013-06-29 10:13:00,79.2,61.8,29.94,NW,324,1.2,4.5,55,0.00,,,-99.99,Meteorologica,2013-06-29 15:13:00,
2013-06-29 10:18:00,79.3,59.8,29.94,NNW,328,2.9,6.3,51,0.00,,,-99.99,Meteorologica,2013-06-29 15:18:00,
2013-06-29 10:23:00,79.7,61.1,29.94,NW,323,1.6,9.9,52,0.00,,,-99.99,Meteorologica,2013-06-29 15:23:00,
2013-06-29 10:28:00,79.9,60.5,29.94,South,190,3.8,6.3,51,0.00,,,-99.99,Meteorologica,2013-06-29 15:28:00,
2013-06-29 10:33:00,79.8,59.0,29.93,NW,319,5.1,8.6,48,0.00,,,-99.99,Meteorologica,2013-06-29 15:33:00,
2013-06-29 10:38:00,79.9,58.7,29.94,North,359,2.2,10.0,48,0.00,,,-99.99,Meteorologica,2013-06-29 15:38:00,
2013-06-29 10:43:00,80.1,60.6,29.93,NNE,19,2.8,7.8,51,0.00,,,-99.99,Meteorologica,2013-06-29 15:43:00,
2013-06-29 10:48:00,80.4,60.2,29.93,North,355,0.0,11.7,50,0.00,,,-99.99,Meteorologica,2013-06-29 15:48:00,
2013-06-29 10:53:00,80.6,59.0,29.94,NW,326,3.1,11.4,47,0.00,,,-99.99,Meteorologica,2013-06-29 15:53:00,
2013-06-29 10:58:00,80.9,59.8,29.93,North,7,1.6,7.6,48,0.00,,,-99.99,Meteorologica,2013-06-29 15:58:00,
2013-06-29 11:03:00,81.3,59.5,29.94,NE,38,4.0,12.7,47,0.00,,,-99.99,Meteorologica,2013-06-29 16:03:00,
2013-06-29 11:08:00,81.3,58.0,29.93,ESE,123,5.7,9.1,45,0.00,,,-99.99,Meteorologica,2013-06-29 16:08:00,
2013-06-29 11:13:00,81.3,57.4,29.94,North,358,6.1,12.0,44,0.00,,,-99.99,Meteorologica,2013-06-29 16:13:00,
2013-06-29 11:18:00,81.2,56.8,29.94,WNW,290,3.6,10.0,43,0.00,,,-99.99,Meteorologica,2013-06-29 16:18:00,
2013-06-29 11:24:00,81.3,57.6,29.94,NNE,32,4.4,6.5,44,0.00,,,-99.99,Meteorologica,2013-06-29 16:24:00,
2013-06-29 11:29:00,81.8,55.4,29.94,North,356,5.6,9.1,40,0.00,,,-99.99,Meteorologica,2013-06-29 16:29:00,
2013-06-29 11:34:00,81.9,55.0,29.94,North,350,8.4,10.5,39,0.00,,,-99.99,Meteorologica,2013-06-29 16:34:00,
2013-06-29 11:39:00,81.8,56.0,29.94,SW,228,5.2,8.7,41,0.00,,,-99.99,Meteorologica,2013-06-29 16:39:00,
2013-06-29 11:44:00,81.9,56.0,29.94,NW,321,5.6,7.3,41,0.00,,,-99.99,Meteorologica,2013-06-29 16:44:00,
2013-06-29 11:49:00,82.0,55.3,29.93,NNE,15,6.3,9.7,40,0.00,,,-99.99,Meteorologica,2013-06-29 16:49:00,
2013-06-29 11:54:00,81.7,55.0,29.94,SE,125,6.7,9.1,40,0.00,,,-99.99,Meteorologica,2013-06-29 16:54:00,
2013-06-29 11:59:00,82.0,56.8,29.93,ESE,117,5.9,10.4,41,0.00,,,-99.99,Meteorologica,2013-06-29 16:59:00,
2013-06-29 12:04:00,82.3,57.3,29.94,SE,133,4.2,6.9,42,0.00,,,-99.99,Meteorologica,2013-06-29 17:04:00,
2013-06-29 12:09:00,82.4,57.7,29.94,NNW,345,5.2,7.5,43,0.00,,,-99.99,Meteorologica,2013-06-29 17:09:00,
2013-06-29 12:14:00,81.4,56.8,29.93,WSW,244,4.9,7.6,43,0.00,,,-99.99,Meteorologica,2013-06-29 17:14:00,
2013-06-29 12:19:00,81.8,58.4,29.93,WNW,296,3.1,6.6,44,0.00,,,-99.99,Meteorologica,2013-06-29 17:19:00,
2013-06-29 12:24:00,81.9,57.3,29.93,ESE,119,4.7,9.3,43,0.00,,,-99.99,Meteorologica,2013-06-29 17:24:00,
2013-06-29 12:29:00,82.1,58.2,29.93,SSE,151,4.2,8.5,44,0.00,,,-99.99,Meteorologica,2013-06-29 17:29:00,
2013-06-29 12:34:00,82.1,55.8,29.93,NNW,345,6.0,9.2,40,0.00,,,-99.99,Meteorologica,2013-06-29 17:34:00,
2013-06-29 12:39:00,82.2,55.3,29.94,SE,138,7.0,9.7,39,0.00,,,-99.99,Meteorologica,2013-06-29 17:39:00,
2013-06-29 12:44:00,83.0,56.0,29.93,NNW,330,3.7,5.1,39,0.00,,,-99.99,Meteorologica,2013-06-29 17:44:00,
2013-06-29 12:49:00,83.4,58.5,29.93,North,359,1.4,4.2,42,0.00,,,-99.99,Meteorologica,2013-06-29 17:49:00,
2013-06-29 12:54:00,83.1,56.5,29.93,NE,40,5.8,9.5,40,0.00,,,-99.99,Meteorologica,2013-06-29 17:54:00,
2013-06-29 12:59:00,82.8,55.8,29.93,SW,223,5.1,6.8,39,0.00,,,-99.99,Meteorologica,2013-06-29 17:59:00,
2013-06-29 13:04:00,83.1,57.6,29.93,WSW,244,4.2,11.1,42,0.00,,,-99.99,Meteorologica,2013-06-29 18:04:00,
2013-06-29 13:09:00,83.0,56.9,29.93,WNW,286,5.6,9.3,41,0.00,,,-99.99,Meteorologica,2013-06-29 18:09:00,
2013-06-29 13:14:00,83.1,55.4,29.93,West,280,5.7,7.8,38,0.00,,,-99.99,Meteorologica,2013-06-29 18:14:00,
2013-06-29 13:19:00,82.6,53.8,29.93,NE,36,5.7,11.8,37,0.00,,,-99.99,Meteorologica,2013-06-29 18:19:00,
2013-06-29 13:24:00,82.9,53.8,29.93,NE,35,6.7,10.6,36,0.00,,,-99.99,Meteorologica,2013-06-29 18:24:00,
2013-06-29 13:29:00,83.1,53.1,29.93,SE,126,6.2,10.2,36,0.00,,,-99.99,Meteorologica,2013-06-29 18:29:00,
2013-06-29 13:34:00,83.0,53.3,29.93,NW,325,4.6,8.8,36,0.00,,,-99.99,Meteorologica,2013-06-29 18:34:00,
2013-06-29 13:39:00,82.8,54.2,29.93,NW,323,4.3,8.8,37,0.00,,,-99.99,Meteorologica,2013-06-29 18:39:00,
2013-06-29 13:44:00,83.5,52.6,29.93,SSE,152,5.7,9.9,34,0.00,,,-99.99,Meteorologica,2013-06-29 18:44:00,
2013-06-29 13:50:00,83.4,53.3,29.92,NNE,26,4.5,9.1,35,0.00,,,-99.99,Meteorologica,2013-06-29 18:50:00,
2013-06-29 13:55:00,83.7,54.2,29.92,NNE,15,5.1,8.6,35,0.00,,,-99.99,Meteorologica,2013-06-29 18:55:00,
2013-06-29 14:00:00,83.5,55.0,29.92,West,278,4.4,11.5,37,0.00,,,-99.99,Meteorologica,2013-06-29 19:00:00,
2013-06-29 14:05:00,83.3,54.4,29.91,West,279,5.3,10.0,37,0.00,,,-99.99,Meteorologica,2013-06-29 19:05:00,
2013-06-29 14:10:00,83.7,54.2,29.91,SSW,198,5.9,7.8,36,0.00,,,-99.99,Meteorologica,2013-06-29 19:10:00,
2013-06-29 14:15:00,84.2,54.0,29.91,WNW,289,6.1,9.9,35,0.00,,,-99.99,Meteorologica,2013-06-29 19:15:00,
2013-06-29 14:20:00,84.2,55.1,29.92,SE,127,6.6,13.3,37,0.00,,,-99.99,Meteorologica,2013-06-29 19:20:00,
2013-06-29 14:25:00,83.4,54.9,29.91,East,89,7.4,20.5,37,0.00,,,-99.99,Meteorologica,2013-06-29 19:25:00,
2013-06-29 14:30:00,83.4,54.6,29.91,NNE,23,5.5,9.9,36,0.00,,,-99.99,Meteorologica,2013-06-29 19:30:00,
2013-06-29 14:35:00,83.8,56.8,29.91,NNE,27,4.0,7.8,39,0.00,,,-99.99,Meteorologica,2013-06-29 19:35:00,
2013-06-29 14:40:00,83.9,55.4,29.91,SW,228,3.1,6.0,37,0.00,,,-99.99,Meteorologica,2013-06-29 19:40:00,
2013-06-29 14:45:00,84.1,55.4,29.91,WNW,300,3.3,8.2,37,0.00,,,-99.99,Meteorologica,2013-06-29 19:45:00,
2013-06-29 14:50:00,83.8,55.7,29.91,NNW,343,5.0,9.9,38,0.00,,,-99.99,Meteorologica,2013-06-29 19:50:00,
2013-06-29 14:55:00,84.1,56.8,29.91,NNE,33,4.4,9.1,39,0.00,,,-99.99,Meteorologica,2013-06-29 19:55:00,
2013-06-29 15:00:00,83.4,54.5,29.90,NE,47,6.6,10.2,37,0.00,,,-99.99,Meteorologica,2013-06-29 20:00:00,
2013-06-29 15:05:00,83.5,55.5,29.90,NNW,346,5.6,11.9,38,0.00,,,-99.99,Meteorologica,2013-06-29 20:05:00,
2013-06-29 15:10:00,83.9,56.3,29.90,NE,34,4.2,9.2,39,0.00,,,-99.99,Meteorologica,2013-06-29 20:10:00,
2013-06-29 15:15:00,84.3,56.0,29.90,NNW,337,5.1,9.7,38,0.00,,,-99.99,Meteorologica,2013-06-29 20:15:00,
2013-06-29 15:20:00,84.5,55.8,29.90,NNW,334,5.2,7.4,37,0.00,,,-99.99,Meteorologica,2013-06-29 20:20:00,
2013-06-29 15:25:00,84.1,55.7,29.90,NNE,32,7.4,13.0,38,0.00,,,-99.99,Meteorologica,2013-06-29 20:25:00,
2013-06-29 15:30:00,84.3,55.2,29.90,NNE,20,6.5,12.3,38,0.00,,,-99.99,Meteorologica,2013-06-29 20:30:00,
2013-06-29 15:35:00,84.1,55.7,29.91,NE,36,3.3,6.3,40,0.00,,,-99.99,Meteorologica,2013-06-29 20:35:00,
2013-06-29 15:40:00,84.4,57.6,29.90,NNW,344,4.1,10.7,40,0.00,,,-99.99,Meteorologica,2013-06-29 20:40:00,
2013-06-29 15:45:00,84.8,58.9,29.90,South,175,5.6,9.5,41,0.00,,,-99.99,Meteorologica,2013-06-29 20:45:00,
2013-06-29 15:50:00,84.5,55.6,29.91,NNW,331,7.0,10.7,37,0.00,,,-99.99,Meteorologica,2013-06-29 20:50:00,
2013-06-29 15:55:00,84.3,56.4,29.90,NNE,28,7.0,12.0,38,0.00,,,-99.99,Meteorologica,2013-06-29 20:55:00,
2013-06-29 16:00:00,83.5,56.0,29.90,West,274,5.5,9.2,39,0.00,,,-99.99,Meteorologica,2013-06-29 21:00:00,
2013-06-29 16:05:00,83.2,56.1,29.90,SE,126,6.0,11.0,39,0.00,,,-99.99,Meteorologica,2013-06-29 21:05:00,
2013-06-29 16:10:00,83.4,55.7,29.90,NNW,338,6.3,13.6,38,0.00,,,-99.99,Meteorologica,2013-06-29 21:10:00,
2013-06-29 16:15:00,83.6,56.6,29.90,North,11,4.3,9.1,39,0.00,,,-99.99,Meteorologica,2013-06-29 21:15:00,
2013-06-29 16:20:00,83.9,58.6,29.90,NNE,19,5.5,11.5,42,0.00,,,-99.99,Meteorologica,2013-06-29 21:20:00,
2013-06-29 16:25:00,83.8,56.1,29.90,ESE,117,4.8,10.3,38,0.00,,,-99.99,Meteorologica,2013-06-29 21:25:00,
2013-06-29 16:30:00,83.9,57.4,29.89,NW,321,3.6,8.5,40,0.00,,,-99.99,Meteorologica,2013-06-29 21:30:00,
2013-06-29 16:35:00,83.9,56.3,29.90,NW,325,4.9,7.6,39,0.00,,,-99.99,Meteorologica,2013-06-29 21:35:00,
2013-06-29 16:40:00,83.9,56.4,29.90,NE,51,4.9,11.5,39,0.00,,,-99.99,Meteorologica,2013-06-29 21:40:00,
2013-06-29 16:45:00,83.5,57.2,29.90,North,359,4.9,7.9,40,0.00,,,-99.99,Meteorologica,2013-06-29 21:45:00,
2013-06-29 16:50:00,82.6,56.8,29.90,SW,236,5.5,9.7,41,0.00,,,-99.99,Meteorologica,2013-06-29 21:50:00,
2013-06-29 16:55:00,82.6,55.9,29.89,NE,42,6.7,10.5,39,0.00,,,-99.99,Meteorologica,2013-06-29 21:55:00,
2013-06-29 17:00:00,83.0,56.1,29.89,WSW,239,5.7,11.5,39,0.00,,,-99.99,Meteorologica,2013-06-29 22:00:00,
2013-06-29 17:05:00,83.2,57.9,29.90,NNE,29,4.6,9.1,42,0.00,,,-99.99,Meteorologica,2013-06-29 22:05:00,
2013-06-29 17:10:00,83.3,57.0,29.90,NNW,343,6.6,9.4,40,0.00,,,-99.99,Meteorologica,2013-06-29 22:10:00,
2013-06-29 17:15:00,83.5,57.7,29.89,North,359,3.5,7.4,40,0.00,,,-99.99,Meteorologica,2013-06-29 22:15:00,
2013-06-29 17:20:00,83.8,57.8,29.88,SE,133,4.7,8.6,41,0.00,,,-99.99,Meteorologica,2013-06-29 22:20:00,
2013-06-29 17:25:00,83.9,57.0,29.89,SE,144,4.6,9.8,40,0.00,,,-99.99,Meteorologica,2013-06-29 22:25:00,
2013-06-29 17:30:00,83.9,58.6,29.89,ENE,60,2.8,9.8,42,0.00,,,-99.99,Meteorologica,2013-06-29 22:30:00,
2013-06-29 17:35:00,83.7,58.8,29.89,SE,136,3.4,7.1,43,0.00,,,-99.99,Meteorologica,2013-06-29 22:35:00,
2013-06-29 17:40:00,83.5,57.8,29.89,SW,235,5.0,8.7,41,0.00,,,-99.99,Meteorologica,2013-06-29 22:40:00,
2013-06-29 17:45:00,83.3,56.9,29.88,NW,304,6.5,9.5,40,0.00,,,-99.99,Meteorologica,2013-06-29 22:45:00,
2013-06-29 17:50:00,83.2,57.5,29.88,NNW,331,2.9,5.0,41,0.00,,,-99.99,Meteorologica,2013-06-29 22:50:00,
2013-06-29 17:55:00,83.4,57.2,29.88,WSW,241,5.5,10.8,41,0.00,,,-99.99,Meteorologica,2013-06-29 22:55:00,
2013-06-29 18:00:00,83.5,57.5,29.89,SW,231,4.5,7.9,41,0.00,,,-99.99,Meteorologica,2013-06-29 23:00:00,
2013-06-29 18:05:00,83.4,57.6,29.89,NNE,27,5.8,8.7,41,0.00,,,-99.99,Meteorologica,2013-06-29 23:05:00,
2013-06-29 18:10:00,83.0,57.5,29.89,SE,136,4.9,8.9,42,0.00,,,-99.99,Meteorologica,2013-06-29 23:10:00,
2013-06-29 18:15:00,81.8,57.3,29.89,SW,217,5.8,14.8,43,0.00,,,-99.99,Meteorologica,2013-06-29 23:15:00,
2013-06-29 18:20:00,80.8,57.1,29.89,NW,309,5.7,8.3,44,0.00,,,-99.99,Meteorologica,2013-06-29 23:20:00,
2013-06-29 18:25:00,80.3,57.7,29.89,ESE,121,3.2,9.1,46,0.00,,,-99.99,Meteorologica,2013-06-29 23:25:00,
2013-06-29 18:30:00,80.3,56.7,29.89,NNE,18,5.6,9.7,44,0.00,,,-99.99,Meteorologica,2013-06-29 23:30:00,
2013-06-29 18:35:00,81.0,57.0,29.88,NNE,21,5.1,8.7,43,0.00,,,-99.99,Meteorologica,2013-06-29 23:35:00,
2013-06-29 18:40:00,81.5,57.9,29.88,North,6,4.2,9.9,44,0.00,,,-99.99,Meteorologica,2013-06-29 23:40:00,
2013-06-29 18:45:00,81.6,58.0,29.89,SE,130,5.4,7.8,44,0.00,,,-99.99,Meteorologica,2013-06-29 23:45:00,
2013-06-29 18:50:00,80.9,58.7,29.90,ESE,117,6.8,17.2,46,0.00,,,-99.99,Meteorologica,2013-06-29 23:50:00,
2013-06-29 18:55:00,80.4,59.1,29.90,ENE,63,2.6,10.2,48,0.00,,,-99.99,Meteorologica,2013-06-29 23:55:00,
2013-06-29 19:00:00,79.9,59.0,29.89,North,359,5.8,9.1,48,0.00,,,-99.99,Meteorologica,2013-06-30 00:00:00,
2013-06-29 19:05:00,79.5,57.6,29.89,ESE,118,5.5,12.5,47,0.00,,,-99.99,Meteorologica,2013-06-30 00:05:00,
2013-06-29 19:10:00,79.3,57.3,29.90,North,359,2.8,12.4,46,0.00,,,-99.99,Meteorologica,2013-06-30 00:10:00,
2013-06-29 19:15:00,79.2,57.8,29.90,NNW,334,5.0,9.2,47,0.00,,,-99.99,Meteorologica,2013-06-30 00:15:00,
2013-06-29 19:20:00,79.1,57.8,29.90,North,1,3.5,5.8,48,0.00,,,-99.99,Meteorologica,2013-06-30 00:20:00,
2013-06-29 19:25:00,78.8,58.0,29.90,NW,310,5.1,8.2,48,0.00,,,-99.99,Meteorologica,2013-06-30 00:25:00,
2013-06-29 19:30:00,78.9,58.5,29.90,West,265,5.7,15.2,49,0.00,,,-99.99,Meteorologica,2013-06-30 00:30:00,
2013-06-29 19:35:00,79.3,58.3,29.90,NW,311,2.1,13.6,48,0.00,,,-99.99,Meteorologica,2013-06-30 00:35:00,
2013-06-29 19:40:00,79.2,58.2,29.90,WSW,246,3.4,13.9,48,0.00,,,-99.99,Meteorologica,2013-06-30 00:40:00,
2013-06-29 19:45:00,79.0,58.5,29.90,ENE,77,1.9,5.5,49,0.00,,,-99.99,Meteorologica,2013-06-30 00:45:00,
2013-06-29 19:50:00,78.7,58.7,29.90,North,7,1.1,6.3,50,0.00,,,-99.99,Meteorologica,2013-06-30 00:50:00,
2013-06-29 19:55:00,78.3,58.5,29.90,North,359,2.6,7.8,50,0.00,,,-99.99,Meteorologica,2013-06-30 00:55:00,
2013-06-29 20:00:00,78.0,58.9,29.91,North,359,0.4,3.5,51,0.00,,,-99.99,Meteorologica,2013-06-30 01:00:00,
2013-06-29 20:05:00,77.8,59.0,29.91,North,359,0.2,0.0,52,0.00,,,-99.99,Meteorologica,2013-06-30 01:05:00,
2013-06-29 20:10:00,77.7,58.8,29.91,NNE,19,1.8,6.4,52,0.00,,,-99.99,Meteorologica,2013-06-30 01:10:00,
2013-06-29 20:15:00,77.4,58.7,29.91,NNE,21,0.2,3.2,52,0.00,,,-99.99,Meteorologica,2013-06-30 01:15:00,
2013-06-29 20:20:00,77.4,59.2,29.90,NNW,341,0.0,0.0,53,0.00,,,-99.99,Meteorologica,2013-06-30 01:20:00,
2013-06-29 20:25:00,77.0,58.9,29.91,NNE,22,0.0,0.0,53,0.00,,,-99.99,Meteorologica,2013-06-30 01:25:00,
2013-06-29 20:30:00,76.9,58.6,29.91,NNW,345,0.5,3.5,53,0.00,,,-99.99,Meteorologica,2013-06-30 01:30:00,
2013-06-29 20:35:00,76.4,58.1,29.91,NNE,16,0.3,2.8,52,0.00,,,-99.99,Meteorologica,2013-06-30 01:35:00,
2013-06-29 20:40:00,76.3,58.4,29.91,NW,324,0.0,0.0,53,0.00,,,-99.99,Meteorologica,2013-06-30 01:40:00,
2013-06-29 20:45:00,76.0,58.2,29.91,NW,324,0.0,0.0,53,0.00,,,-99.99,Meteorologica,2013-06-30 01:45:00,
2013-06-29 20:50:00,75.8,58.2,29.91,NW,324,0.0,0.0,54,0.00,,,-99.99,Meteorologica,2013-06-30 01:50:00,
2013-06-29 20:55:00,75.5,58.1,29.91,NW,324,0.0,0.0,54,0.00,,,-99.99,Meteorologica,2013-06-30 01:55:00,
2013-06-29 21:00:00,75.4,58.2,29.91,North,352,0.0,0.0,54,0.00,,,-99.99,Meteorologica,2013-06-30 02:00:00,
2013-06-29 21:05:00,75.0,58.2,29.91,North,352,0.0,0.0,55,0.00,,,-99.99,Meteorologica,2013-06-30 02:05:00,
2013-06-29 21:10:00,74.8,58.4,29.91,North,352,0.0,0.0,56,0.00,,,-99.99,Meteorologica,2013-06-30 02:10:00,
2013-06-29 21:15:00,74.3,58.3,29.91,North,352,0.0,0.0,57,0.00,,,-99.99,Meteorologica,2013-06-30 02:15:00,
2013-06-29 21:20:00,74.0,58.4,29.91,North,352,0.0,0.0,57,0.00,,,-99.99,Meteorologica,2013-06-30 02:20:00,
2013-06-29 21:25:00,73.8,73.8,29.91,North,352,0.0,0.0,100,0.00,,,-99.99,Meteorologica,2013-06-30 02:25:00,
2013-06-29 21:30:00,73.6,58.6,29.92,North,352,0.0,0.0,59,0.00,,,-99.99,Meteorologica,2013-06-30 02:30:00,
2013-06-29 21:35:00,73.2,58.7,29.92,North,352,0.0,0.0,60,0.00,,,-99.99,Meteorologica,2013-06-30 02:35:00,
2013-06-29 21:40:00,72.9,58.9,29.93,North,352,0.0,0.0,61,0.00,,,-99.99,Meteorologica,2013-06-30 02:40:00,
2013-06-29 21:45:00,72.7,58.9,29.93,North,352,0.0,0.0,61,0.00,,,-99.99,Meteorologica,2013-06-30 02:45:00,
2013-06-29 21:50:00,72.4,59.2,29.93,North,352,0.0,0.0,62,0.00,,,-99.99,Meteorologica,2013-06-30 02:50:00,
2013-06-29 21:55:00,72.2,58.9,29.93,North,352,0.0,0.0,62,0.00,,,-99.99,Meteorologica,2013-06-30 02:55:00,
2013-06-29 22:00:00,71.9,58.9,29.93,North,352,0.0,0.0,63,0.00,,,-99.99,Meteorologica,2013-06-30 03:00:00,
2013-06-29 22:05:00,71.8,59.1,29.93,North,352,0.0,0.0,63,0.00,,,-99.99,Meteorologica,2013-06-30 03:05:00,
2013-06-29 22:10:00,71.6,59.0,29.94,North,352,0.0,0.0,64,0.00,,,-99.99,Meteorologica,2013-06-30 03:10:00,
2013-06-29 22:15:00,71.4,59.0,29.94,North,352,0.0,0.0,64,0.00,,,-99.99,Meteorologica,2013-06-30 03:15:00,
2013-06-29 22:20:00,71.3,59.1,29.94,North,352,0.0,0.0,65,0.00,,,-99.99,Meteorologica,2013-06-30 03:20:00,
2013-06-29 22:25:00,71.1,59.2,29.94,North,352,0.0,0.0,65,0.00,,,-99.99,Meteorologica,2013-06-30 03:25:00,
2013-06-29 22:30:00,70.9,59.3,29.94,North,352,0.0,0.0,66,0.00,,,-99.99,Meteorologica,2013-06-30 03:30:00,
2013-06-29 22:35:00,70.6,59.2,29.94,North,352,0.0,0.0,66,0.00,,,-99.99,Meteorologica,2013-06-30 03:35:00,
2013-06-29 22:40:00,70.4,59.3,29.94,North,352,0.0,0.0,67,0.00,,,-99.99,Meteorologica,2013-06-30 03:40:00,
2013-06-29 22:45:00,70.0,59.3,29.94,North,352,0.0,0.0,68,0.00,,,-99.99,Meteorologica,2013-06-30 03:45:00,
2013-06-29 22:50:00,69.6,59.4,29.94,North,352,0.0,0.0,69,0.00,,,-99.99,Meteorologica,2013-06-30 03:50:00,
2013-06-29 22:55:00,69.4,59.8,29.94,North,352,0.0,0.0,71,0.00,,,-99.99,Meteorologica,2013-06-30 03:55:00,
2013-06-29 23:00:00,68.9,59.6,29.94,North,352,0.0,0.0,71,0.00,,,-99.99,Meteorologica,2013-06-30 04:00:00,
2013-06-29 23:02:00,68.7,59.4,29.94,North,352,0.0,0.0,71,0.00,,,-99.99,Meteorologica,2013-06-30 04:02:00,
2013-06-29 23:04:00,68.6,59.4,29.94,North,352,0.0,0.0,72,0.00,,,-99.99,Meteorologica,2013-06-30 04:04:00,
2013-06-29 23:05:00,68.6,59.4,29.94,North,352,0.0,0.0,72,0.00,,,-99.99,Meteorologica,2013-06-30 04:05:00,
2013-06-29 23:10:00,68.3,59.5,29.94,North,352,0.0,0.0,73,0.00,,,-99.99,Meteorologica,2013-06-30 04:10:00,
2013-06-29 23:12:00,68.2,59.5,29.94,North,352,0.0,0.0,73,0.00,,,-99.99,Meteorologica,2013-06-30 04:12:00,
2013-06-29 23:17:00,67.9,59.6,29.94,North,352,0.0,0.0,74,0.00,,,-99.99,Meteorologica,2013-06-30 04:17:00,
2013-06-29 23:22:00,67.7,59.8,29.94,North,352,0.0,0.0,75,0.00,,,-99.99,Meteorologica,2013-06-30 04:22:00,
2013-06-29 23:26:00,67.4,59.6,29.94,North,352,0.0,0.0,75,0.00,,,-99.99,Meteorologica,2013-06-30 04:26:00,
2013-06-29 23:31:00,67.2,59.7,29.94,North,352,0.0,0.0,76,0.00,,,-99.99,Meteorologica,2013-06-30 04:31:00,
2013-06-29 23:36:00,66.9,59.7,29.94,North,352,0.0,0.0,77,0.00,,,-99.99,Meteorologica,2013-06-30 04:36:00,
2013-06-29 23:41:00,66.7,59.6,29.94,North,352,0.0,0.0,77,0.00,,,-99.99,Meteorologica,2013-06-30 04:41:00,
2013-06-29 23:46:00,66.4,59.5,29.94,North,352,0.0,0.0,78,0.00,,,-99.99,Meteorologica,2013-06-30 04:46:00,
2013-06-29 23:51:00,66.2,59.6,29.94,North,352,0.0,0.0,79,0.00,,,-99.99,Meteorologica,2013-06-30 04:51:00,
2013-06-29 23:56:00,65.9,59.5,29.94,North,352,0.0,0.0,79,0.00,,,-99.99,Meteorologica,2013-06-30 04:56:00,